Location: Peebles
(55.6412°N, 3.1714°W)
Time: 02:10:25
(UTC+01:00)

LEMUR 2 ETHANOAKES - Visible Passes

Search period start: 01 July 2022 00:00
Search period end: 11 July 2022 00:00
Orbit: 512 x 516 km, 97.4° (Epoch: 30 June)

Date Brightness Start Highest point End Pass type
(mag) Time Alt. Az. Time Alt. Az. Time Alt. Az.
01 Jul ? 23:23:19 10° SSW 23:26:48 35° W 23:30:18 10° NNW visible
02 Jul ? 23:07:46 10° S 23:11:26 50° W 23:15:07 10° NNW visible
03 Jul ? 22:52:20 10° S 22:56:05 72° WSW 22:59:52 10° NNW visible
05 Jul ? 00:13:25 10° WSW 00:15:19 13° W 00:17:14 10° NW visible
05 Jul ? 23:57:10 10° SW 23:59:49 18° W 00:02:30 10° NW visible
06 Jul ? 23:41:13 10° SSW 23:44:21 25° W 23:47:30 10° NW visible
07 Jul ? 23:25:27 10° SSW 23:28:54 34° W 23:32:22 10° NNW visible
08 Jul ? 23:09:49 10° S 23:13:27 48° W 23:17:07 10° NNW visible
09 Jul ? 22:54:18 10° S 22:58:02 69° WSW 23:01:49 10° NNW visible
